Regional Weather Roundup
Issued by NWS

Home | Current Version | Previous Version | Graphics & Text | Print | Product List | Glossary On
Versions: 1 2 3 4 5 6 7 8 9 10 11 12 13 14 15 16 17 18 19 20 21 22 23 24 25 26 27 28 29 30 31 32 33 34 35 36 37 38 39 40 41 42 43 44 45 46 47 48 49 50
000
ASUS43 KLSX 222210
RWRMO

WEATHER SUMMARY FOR MISSOURI
NATIONAL WEATHER SERVICE SPRINGFIELD MO
400 PM CST SUN JAN 22 2017

NOTE: "FAIR" INDICATES FEW OR NO CLOUDS BELOW 12,000 FEET WITH NO
       SIGNIFICANT WEATHER AND/OR OBSTRUCTIONS TO VISIBILITY.
       CURRENT SKY AND/OR WEATHER CONDITIONS ARE NOT AVAILABLE FOR
       CHILLICOTHE AND FARMINGTON.

MOZ001>031-035>038-043-044-053-054-222300-
...NORTHERN AND WESTERN MISSOURI...

CITY           SKY/WX    TMP DP  RH WIND       PRES   REMARKS
KANSAS CTY INT CLOUDY    37  31  78 N12       29.75S WCI  29
KANSAS C DTWN  CLOUDY    38  33  82 N8        29.76R
LEE`S SUMMIT   CLOUDY    35  31  85 N18       29.75R WCI  24
ST JOSEPH      CLOUDY    38  35  89 N16       29.78R WCI  29
CHILLICOTHE      N/A     41  35  79 N7        29.73R
KIRKSVILLE     CLOUDY    40  36  86 N10       29.69R

$$
MOZ066>068-077>081-088>096-101>105-222300-
...SOUTHWEST MISSOURI...

CITY           SKY/WX    TMP DP  RH WIND       PRES   REMARKS
SPRINGFIELD    LGT RAIN  45  42  89 N22       29.61R
JOPLIN         LGT RAIN  46  45  96 N14       29.69R
BRANSON        LGT RAIN  45  45 100 NW15G21   29.57R

$$
MOZ032>034-039>042-045>050-055>058-069>072-222300-
...CENTRAL MISSOURI...

CITY           SKY/WX    TMP DP  RH WIND       PRES   REMARKS
COLUMBIA       CLOUDY    45  42  89 NW21      29.63R
JEFFERSON CITY CLOUDY    47  42  83 NW9       29.63R
ROLLA          CLOUDY    47  40  76 N17G25    29.56R
SEDALIA        LGT RAIN  38  36  92 N20       29.71R WCI  28
WHITEMAN AFB   CLOUDY    36  36 100 N15G21    29.71R WCI  27
WARRENSBURG    CLOUDY    36  32  87 NW13G20   29.74R WCI  27
OSAGE BEACH    LGT RAIN  45  43  93 N12       29.62S FOG

$$
MOZ051-052-059>065-222300-
...EAST CENTRAL MISSOURI...

CITY           SKY/WX    TMP DP  RH WIND       PRES   REMARKS
ST LOUIS INTL  CLOUDY    54  44  69 N17       29.55R
SPIRIT OF STL  CLOUDY    54  43  66 N8        29.55R
ST CHARLES     CLOUDY    52  44  74 N13       29.55R

$$
MOZ072>076-082>087-097>100-106>115-222300-
...SOUTH CENTRAL AND SOUTHEAST MISSOURI...

CITY           SKY/WX    TMP DP  RH WIND       PRES   REMARKS
CAPE GIRARDEAU MOSUNNY   61  51  70 N25       29.33F
FARMINGTON     CLOUDY    52  47  83 N15G25    29.46S
POPLAR BLUFF   PTSUNNY   60  53  77 N15       29.34F
WEST PLAINS    CLOUDY    45  43  93 N21G31    29.51R

$$




USA.gov is the U.S. government's official web portal to all federal, state and local government web resources and services.